Regional Weather Roundup
Issued by NWS

Home | Current Version | Previous Version | Graphics & Text | Print | Product List | Glossary On
Versions: 1 2 3 4 5 6 7 8 9 10 11 12 13 14 15 16 17 18 19 20 21 22 23 24 25 26 27 28 29 30 31 32 33 34 35 36 37 38 39 40 41 42 43 44 45 46 47 48 49 50
000
ASUS43 KLMK 220202
RWRKY
KENTUCKY REGIONAL WEATHER ROUNDUP
NATIONAL WEATHER SERVICE LOUISVILLE KY
1000 PM EDT MON AUG 21 2017

NOTE "FAIR" INDICATES FEW OR NO CLOUDS BELOW 12,000 FEET
WITH NO SIGNIFICANT WEATHER AND/OR OBSTRUCTIONS TO VISIBILITY.

KYZ001>023-026-027-061>063-070>075-220300-
WESTERN AND SOUTH CENTRAL KENTUCKY

CITY           SKY/WX    TMP DP  RH WIND       PRES   REMARKS
PADUCAH        PTCLDY    83  75  77 S3        30.06S HX  90
HENDERSON      NOT AVBL
OWENSBORO      CLEAR     81  70  69 W3        30.10R
HOPKINSVILLE   CLEAR     84  73  68 S6        30.10R HX  90
BOWLING GREEN  CLOUDY    83  71  67 S5        30.11R
GLASGOW        CLEAR     74  68  82 CALM      30.13R
$$

KYZ024-025-028>034-038-045-046-053-220300-
NORTH CENTRAL KENTUCKY

CITY           SKY/WX    TMP DP  RH WIND       PRES   REMARKS
LOUISVILLE/SDF CLOUDY    86  70  58 S8        30.08R HX  90
LOUISVILLE/LOU MOCLDY    83  72  69 S6        30.09R
FORT KNOX      CLOUDY    76  70  81 CALM      30.09S
$$

KYZ035>037-039>044-047>052-055>060-089>105-220300-
NORTHEAST KENTUCKY

CITY           SKY/WX    TMP DP  RH WIND       PRES   REMARKS
LEXINGTON      PTCLDY    78  67  68 S6        30.13S
COVINGTON      CLOUDY    78  72  81 S6        30.09S
FRANKFORT      CLOUDY    78  69  73 S5        30.10S
$$

KYZ054-064>069-076>088-106>120-220300-
SOUTHEAST KENTUCKY

CITY           SKY/WX    TMP DP  RH WIND       PRES   REMARKS
JACKSON        CLEAR     79  68  69 CALM      30.17S
LONDON         CLEAR     76  71  85 CALM      30.17R
SOMERSET       NOT AVBL
MIDDLESBORO    CLEAR     73  68  84 W3        30.20R
MONTICELLO     CLEAR     71  70  96 W8        30.18R
$$





USA.gov is the U.S. government's official web portal to all federal, state and local government web resources and services.